Weather History for KBRO - January, 2013

Change the Weather History Date:

Sunday, January 6, 2013

  Actual Average Record
Temperature  
Mean Temperature 58 °F 60 °F  
Max Temperature 66 °F 70 °F 85 °F (1978)
Min Temperature 49 °F 51 °F 25 °F (1884)
Degree Days  
Heating Degree Days 7 6  
Month to date heating degree days 78 36  
Since 1 July heating degree days 158 255  
Cooling Degree Days 0 2  
Month to date cooling degree days 0 12  
Year to date cooling degree days 0 12  
Growing Degree Days 2 (Base 50)    
Moisture  
Dew Point 44 °F    
Average Humidity 62    
Maximum Humidity 86    
Minimum Humidity 37    
Precipitation  
Precipitation T in 0.04 in 0.98 in (1878)
Month to date precipitation 0.67 0.21  
Year to date precipitation 0.67 0.21  
Sea Level Pressure  
Sea Level Pressure 30.28 in    
Wind  
Wind Speed 10 mph (North)    
Max Wind Speed 20 mph    
Max Gust Speed 26 mph    
Visibility 10 miles    
Events      
T = Trace of Precipitation, MM = Missing Value Source: NWS Daily Summary

Daily Weather History Graph

Daily Weather History Graph

Search for Another Location

Airport or City:

Trip Planner

Search our weather history database for the weather conditions in past years. The results will help you decide how hot, cold, wet, or windy it might be!

Date:

Astronomy

Jan. 06, 2013 Rise Set
Actual Time 7:17 AM CST 5:53 PM CST
Civil Twilight 6:52 AM CST 6:18 PM CST
Nautical Twilight 6:24 AM CST 6:47 PM CST
Astronomical Twilight 5:56 AM CST 7:15 PM CST
Moon 1:46 AM CST (1/6) 1:11 PM CST (1/6)
Length of Visible Light 11h 25m
Length of Day
10h 35m
Waning Crescent, 33% of the Moon is Illuminated
Jan 6
Waning Crescent
Jan 11
New
Jan 18
First Quarter
Jan 26
Full
Feb 3
Last Quarter

Hourly Weather History & Observations

Time (CST) Temp. Dew Point Humidity Pressure Visibility Wind Dir Wind Speed Gust Speed Precip Events Conditions
12:19 AM 50.0 °F 44.6 °F 82% 30.26 in 10.0 mi NW 9.2 mph - N/A   Overcast
12:53 AM 50.0 °F 46.0 °F 86% 30.26 in 10.0 mi NW 8.1 mph - N/A   Overcast
1:24 AM 51.8 °F 46.4 °F 82% 30.26 in 10.0 mi NW 9.2 mph - N/A   Overcast
1:53 AM 51.1 °F 46.0 °F 83% 30.25 in 10.0 mi NW 10.4 mph - N/A   Overcast
2:53 AM 51.1 °F 46.0 °F 83% 30.24 in 10.0 mi NW 11.5 mph - N/A   Overcast
3:43 AM 51.8 °F 44.6 °F 76% 30.24 in 10.0 mi NNW 11.5 mph - N/A   Overcast
3:53 AM 51.1 °F 45.0 °F 80% 30.24 in 10.0 mi NNW 11.5 mph - N/A   Overcast
4:53 AM 51.1 °F 45.0 °F 80% 30.25 in 10.0 mi NNW 12.7 mph - N/A   Overcast
5:53 AM 51.1 °F 45.0 °F 80% 30.25 in 10.0 mi North 9.2 mph - N/A   Overcast
6:53 AM 52.0 °F 45.0 °F 77% 30.29 in 10.0 mi NW 8.1 mph - N/A   Overcast
7:53 AM 52.0 °F 45.0 °F 77% 30.27 in 10.0 mi North 12.7 mph 17.3 mph N/A   Overcast
8:53 AM 52.0 °F 45.0 °F 77% 30.32 in 10.0 mi NNW 10.4 mph - 0.00 in   Overcast
9:53 AM 54.0 °F 44.1 °F 69% 30.35 in 10.0 mi NW 9.2 mph - N/A   Overcast
10:53 AM 55.9 °F 44.1 °F 64% 30.35 in 10.0 mi NNW 13.8 mph - N/A   Overcast
11:53 AM 60.1 °F 44.1 °F 55% 30.30 in 10.0 mi NNW 15.0 mph 19.6 mph N/A   Overcast
12:53 PM 64.9 °F 42.1 °F 43% 30.26 in 10.0 mi North 12.7 mph 25.3 mph N/A   Clear
1:53 PM 64.9 °F 37.0 °F 36% 30.25 in 10.0 mi NNE 13.8 mph 20.7 mph N/A   Clear
2:53 PM 63.0 °F 39.0 °F 41% 30.25 in 10.0 mi NNE 13.8 mph 21.9 mph N/A   Scattered Clouds
3:53 PM 62.1 °F 39.0 °F 43% 30.25 in 10.0 mi NNE 15.0 mph - N/A   Partly Cloudy
4:53 PM 59.0 °F 41.0 °F 51% 30.26 in 10.0 mi NNE 12.7 mph - N/A   Scattered Clouds
5:53 PM 57.0 °F 46.0 °F 67% 30.26 in 10.0 mi NNE 10.4 mph - N/A   Overcast
6:53 PM 55.9 °F 46.9 °F 72% 30.28 in 10.0 mi NNE 8.1 mph - N/A   Overcast
7:53 PM 55.9 °F 46.9 °F 72% 30.30 in 10.0 mi NNE 6.9 mph - N/A   Overcast
8:53 PM 55.9 °F 46.9 °F 72% 30.30 in 10.0 mi NNE 8.1 mph - N/A   Overcast
9:53 PM 54.0 °F 46.0 °F 75% 30.30 in 10.0 mi NNE 4.6 mph - N/A   Clear
10:53 PM 52.0 °F 45.0 °F 77% 30.30 in 10.0 mi Calm Calm - N/A   Partly Cloudy
11:53 PM 52.0 °F 46.0 °F 80% 30.30 in 10.0 mi NNW 5.8 mph - N/A   Overcast